User: anonymous   Login
Location: Équennes
(49.7375°N, 1.9622°E)
Time: 13:34:15
(UTC+00:00)
Language:

deb Delta 132 - Orbit

View from above orbital plane
View from above orbital plane
View from above satellite
View from above satellite

Ground track
Ground track

The orbit data is extracted from the following two-line orbital elements,

1 10221U 77065AY  24054.17698822  .00014809  00000-0  17264-2 0  9993
2 10221  29.0309  11.0082 0386109  67.8848 296.2259 14.42655816349497
Epoch (UTC): 23 February 2024 04:14:51
Eccentricity: 0.0386109
inclination: 29.0309°
perigee height: 474 km
apogee height: 1025 km
right ascension of ascending node: 11.0082°
argument of perigee: 67.8848°
revolutions per day: 14.42655816
mean anomaly at epoch: 296.2259°
orbit number at epoch: 34949

The dashed part of the orbit path shows where the satellite is in the earth's shadow,  

DLR